Location: Asheville, NC
(35.6000°N, 82.5500°W)
Time: 03:13:16
(UTC-04:00)

Vanguard 1 Rocket - Pass Details

Date: 14 March 2018
Orbit: 653 x 4224 km, 34.3° (Epoch: 19 June)

Event Time Altitude Azimuth Distance (km) Brightness Sun altitude
Rises 17:39:13 0° 218° (SW) 3,243 11.2 22.5°
Reaches altitude 10° 17:41:26 10° 208° (SSW) 2,511 10.5 22.1°
Maximum altitude 17:46:42 34° 143° (SE) 1,826 9.0 21.1°
Drops below altitude 10° 17:55:28 10° 83° (E) 4,225 10.3 19.4°
Sets 18:00:26 0° 76° (ENE) 5,853 10.9 18.5°
